Location: Ponte Samoggia
(44.5667°N, 11.1333°E)
Time: 15:59:23
(UTC+00:00)

Cosmos 1371 Rocket - Pass Details

Date: 26 May 2022
Orbit: 753 x 790 km, 74.0° (Epoch: 06 July)

Event Time Altitude Azimuth Distance (km) Brightness Sun altitude
Exits shadow 02:48:58 - 198° (SSW) 2,716 6.3 -7.9°
Reaches altitude 10° 02:50:06 10° 198° (SSW) 2,270 5.9 -7.7°
Maximum altitude 02:55:15 87° 111° (ESE) 761 4.0 -7.0°
Drops below altitude 10° 03:00:27 10° 22° (NNE) 2,290 7.5 -6.3°
Sets 03:02:49 0° 22° (NNE) 3,222 8.4 -5.9°
